Temperature
19 18 17 18 18 20 20 19 20 20 20 19 18 18 19 19 18 18 18 19 19 19 19 18 18 17 17 16 16 15 15 14 14 14 13 13 13 13 13 13 13 13 13 13
18 18 19 19 19 20 20 20 19 20 20 19 18 18 18 18 18 18 18 19 19 19 18 18 18 17 17 16 15 15 14 14 14 13 13 13 13 13 13 13 13 13 12 12
19 19 20 20 19 19 19 19 20 20 20 19 19 18 18 18 18 18 19 19 19 19 19 18 18 17 16 16 15 15 14 14 13 13 13 13 13 13 13 13 13 12 12 12
19 20 20 20 20 20 20 20 20 20 19 18 19 17 18 17 17 17 18 18 19 19 19 18 18 17 16 16 15 15 14 14 13 13 13 13 13 12 12 12 12 12 12 12
19 19 20 20 20 20 20 20 19 19 18 17 17 17 17 17 18 17 17 18 19 19 19 18 18 17 16 16 15 14 14 14 13 13 13 13 12 12 12 12 12 12 12 12
19 20 20 20 20 20 19 18 17 15 16 17 18 17 17 16 17 18 17 18 19 19 19 18 17 17 16 15 15 14 14 14 13 13 13 13 12 12 12 12 12 12 12 12
20 20 20 20 20 20 19 18 17 18 16 17 17 17 16 17 17 17 18 19 19 19 19 18 17 17 16 15 15 14 14 14 13 13 13 13 12 12 12 12 12 12 12 12
20 20 21 21 20 20 19 18 18 18 17 16 17 17 17 18 18 19 19 19 19 19 19 18 18 17 16 16 15 14 14 14 13 13 13 13 12 12 12 12 12 12 12 12
19 20 21 21 20 19 18 17 17 16 17 16 16 16 17 19 18 18 18 18 19 19 19 18 18 17 16 16 15 14 14 14 13 13 13 13 12 12 12 12 12 12 12 12
19 20 20 21 20 19 18 15 15 16 17 17 17 17 17 19 18 17 17 18 19 20 19 18 18 17 16 16 15 14 14 14 13 13 13 13 12 12 12 12 12 12 12 12
19 19 20 20 21 20 18 17 15 13 15 15 16 17 17 17 18 17 17 19 20 20 19 19 18 17 16 16 15 15 14 14 13 13 13 13 13 12 12 12 12 12 12 12
18 17 18 19 20 20 20 18 15 17 16 14 15 16 17 17 17 17 19 20 20 20 20 19 18 17 17 16 15 15 14 14 13 13 13 13 13 13 12 12 12 12 12 12
17 17 18 19 19 20 20 18 16 14 13 12 14 17 17 17 17 18 19 20 21 20 20 19 18 17 17 16 16 15 14 14 14 13 13 13 13 13 12 12 12 12 12 12
17 17 18 19 19 19 20 18 16 15 15 14 14 16 18 18 18 18 19 20 21 20 20 19 18 18 17 16 16 15 15 14 14 13 13 13 13 13 13 12 12 12 12 12
18 18 18 18 19 19 19 19 17 16 16 16 16 16 17 17 17 19 20 20 20 20 20 19 19 18 17 17 16 16 15 15 14 14 13 13 13 13 13 13 13 12 12 12
16 18 19 19 19 18 18 18 17 17 17 16 17 17 17 18 19 19 20 20 20 20 20 20 19 18 18 17 16 16 15 15 14 14 14 14 13 13 13 13 13 13 13 12
15 17 17 17 17 19 18 18 18 17 17 17 17 18 18 18 17 19 21 21 21 21 21 20 19 19 18 17 17 16 16 15 15 14 14 14 14 13 13 13 13 13 13 13
15 15 14 15 18 19 18 18 18 18 18 17 17 18 17 18 21 22 22 22 22 21 21 20 19 19 18 17 17 16 16 15 15 15 14 14 14 14 14 13 13 13 13 13
14 14 13 14 17 17 18 19 18 18 19 18 17 18 18 19 19 20 22 22 22 22 21 20 20 19 18 17 17 16 16 16 15 15 15 14 14 14 14 14 13 13 13 13
13 13 13 13 17 17 18 20 20 19 19 19 18 17 18 17 17 19 23 22 22 21 21 20 19 19 18 17 17 16 16 16 16 15 15 15 14 14 14 14 14 13 13 13
15 14 14 14 15 16 17 18 19 20 19 21 21 20 19 18 20 23 23 22 22 21 20 20 19 18 18 17 17 16 16 16 16 15 15 15 14 14 14 14 14 14 13 13
15 14 13 12 15 16 18 18 18 19 21 22 22 22 21 22 22 22 22 22 21 21 20 19 19 18 18 17 17 17 16 16 16 15 15 15 15 14 14 14 14 14 14 13
14 14 13 14 16 18 19 20 21 21 21 22 23 23 23 22 22 22 22 21 21 20 20 19 18 18 18 17 17 16 16 16 16 15 15 15 14 14 14 14 14 14 13 13
14 13 13 13 14 17 19 20 21 22 22 22 23 23 23 23 23 22 22 21 21 20 19 19 18 18 17 17 17 16 16 16 15 15 15 14 14 14 14 14 14 13 13 13
14 13 13 14 14 17 21 22 22 21 22 22 22 23 23 23 22 22 22 21 20 20 19 19 18 18 17 17 16 16 16 15 15 15 15 14 14 14 14 13 13 13 13 13
13 14 14 15 17 16 19 21 20 21 21 22 22 22 22 22 22 22 22 21 20 20 19 18 18 17 17 17 16 16 15 15 15 15 14 14 14 13 13 13 13 12 12 12
Wind_Speed
5 5 6 10 9 5 5 4 4 5 3 6 7 8 8 4 6 8 7 7 8 7 5 4 5 4 3 1 1 1 1 2 2 2 2 2 3 3 3 3 4 5 5 4
5 5 8 6 5 4 4 4 4 3 1 4 4 7 6 4 6 8 9 10 9 6 4 5 4 4 3 2 2 1 2 2 1 1 1 2 2 3 3 3 4 5 5 4
7 5 6 7 6 6 5 6 5 3 2 2 2 7 5 2 2 4 6 6 7 9 9 7 5 5 3 3 4 3 2 2 2 2 1 2 2 3 3 4 4 5 6 5
4 3 6 6 6 7 5 5 4 3 2 2 1 4 7 4 4 4 5 6 7 7 7 7 6 6 5 5 3 3 3 3 2 2 1 1 2 2 3 4 4 6 5 5
3 4 6 5 5 7 4 3 3 2 3 1 1 2 8 3 5 7 7 7 7 8 8 8 7 7 5 4 3 3 2 3 2 2 1 1 2 2 4 4 5 5 5 5
1 1 3 5 2 5 5 6 7 6 5 1 3 4 7 5 7 5 5 7 8 7 7 6 5 4 4 3 2 2 3 3 2 2 2 1 3 4 5 5 5 5 5 4
3 1 1 3 4 3 5 6 4 4 4 5 3 3 9 7 7 7 7 8 8 7 7 6 6 6 6 5 4 3 3 4 3 3 3 3 3 3 4 4 4 5 4 4
3 2 2 3 5 6 4 7 6 4 4 5 3 5 8 6 5 4 4 5 6 7 7 8 8 7 6 6 5 4 4 4 4 3 4 3 3 2 3 4 4 4 4 5
5 3 2 1 3 9 6 3 5 6 2 2 6 7 8 2 1 1 3 5 7 8 8 8 7 7 7 6 6 5 5 5 4 4 4 4 3 3 4 4 4 4 4 4
5 2 2 0 6 5 5 9 6 5 3 3 6 6 5 7 7 5 5 7 8 7 7 7 7 7 7 6 5 4 4 5 4 3 3 3 3 3 4 4 5 5 5 5
3 3 2 2 4 6 5 5 6 5 5 5 3 7 7 8 8 9 10 9 9 9 8 8 7 7 6 4 4 4 4 4 4 3 3 3 4 3 3 4 5 5 4 5
3 4 0 4 3 2 5 7 8 5 4 5 4 8 7 8 8 8 9 8 7 8 7 7 7 5 5 5 5 5 4 4 4 3 3 3 3 3 4 4 5 4 4 5
6 5 3 6 6 1 2 4 5 6 6 6 5 8 5 3 5 7 8 8 7 7 7 6 6 6 6 6 5 5 5 5 4 3 2 3 3 3 4 4 4 4 4 5
6 4 6 7 7 4 4 5 6 7 5 6 9 10 9 7 8 8 8 8 7 7 7 7 7 7 7 6 6 6 6 5 4 3 3 3 4 4 4 4 4 4 4 4
5 3 5 6 6 4 5 6 7 9 9 10 10 10 13 11 10 9 8 7 6 7 7 8 8 8 7 6 6 6 5 5 4 3 3 4 4 3 3 3 4 4 4 4
3 4 2 4 3 4 5 8 9 9 7 8 8 11 12 8 5 6 8 8 9 9 9 9 9 8 8 8 7 6 6 5 4 4 5 4 3 3 3 4 4 4 4 4
3 5 3 4 5 3 7 10 10 7 8 10 11 13 8 5 9 10 10 10 11 11 10 10 10 10 9 9 8 8 7 5 4 4 4 4 3 3 4 3 3 4 4 4
7 5 4 1 2 6 9 5 6 8 9 11 10 9 8 10 8 7 8 10 11 10 10 9 9 8 8 7 7 6 4 4 4 4 4 4 3 4 3 3 4 4 3 3
5 7 5 3 2 8 10 6 6 6 8 9 11 10 6 3 1 4 7 10 10 10 9 9 8 7 7 7 7 6 5 4 4 4 5 4 4 4 3 3 4 3 3 3
5 5 6 4 3 6 9 5 3 4 6 7 8 9 6 8 3 7 7 8 8 7 6 7 7 6 6 6 7 7 6 5 5 6 5 4 4 4 4 4 4 2 2 3
2 3 4 5 5 8 10 5 5 3 7 5 6 8 10 10 9 5 5 7 7 7 7 7 8 7 6 6 8 7 6 6 6 4 4 3 3 4 4 3 2 2 2 3
7 6 6 6 4 8 5 5 6 8 5 4 5 7 10 10 5 4 7 7 8 7 7 8 8 6 5 7 8 7 6 5 3 3 3 2 2 2 2 2 2 2 2 2
7 8 7 9 9 7 3 7 7 4 6 6 5 6 8 8 7 7 7 8 8 8 8 7 8 7 5 5 7 7 5 4 4 3 2 1 1 1 1 1 2 1 1 1
5 3 4 5 9 9 9 8 7 6 7 8 7 6 7 9 9 9 8 8 8 7 8 7 8 8 6 5 5 5 4 5 5 4 2 1 1 0 1 0 0 0 1 1
6 4 3 6 9 10 9 6 6 6 7 7 6 6 9 9 9 10 9 9 9 8 7 8 9 8 7 6 5 4 4 6 5 4 2 1 1 1 1 1 0 0 0 1
6 7 7 9 9 6 10 9 7 8 9 9 7 6 6 9 10 10 9 9 9 9 8 8 8 8 7 6 5 4 5 6 6 4 3 2 1 1 1 1 2 3 2 5
Wind_Direction
125 116 170 191 190 184 169 183 233 252 196 180 225 258 270 207 203 216 213 207 213 219 219 192 185 171 158 169 200 281 313 325 351 351 339 332 323 321 327 328 336 336 332 330
101 189 200 170 163 146 161 197 243 284 167 187 250 276 278 215 213 214 211 209 210 203 195 192 186 176 181 195 219 247 260 294 315 294 275 263 276 293 293 306 324 333 336 332
152 199 157 141 150 161 194 202 214 216 46 49 347 315 304 305 248 221 206 200 199 197 197 196 193 196 195 211 218 223 237 268 300 320 336 342 345 337 340 334 330 327 330 327
146 170 145 146 173 165 223 226 194 163 108 301 57 287 294 302 299 246 215 199 202 203 195 195 197 201 208 218 221 227 242 269 294 323 356 356 345 322 301 303 308 317 326 326
175 162 151 174 200 172 194 67 104 102 129 8 3 188 288 321 272 257 229 212 208 204 197 199 202 207 213 215 217 230 254 279 297 313 315 333 312 287 296 307 320 327 327 328
127 177 176 182 123 144 130 75 58 51 72 321 244 180 279 247 232 251 225 208 205 200 198 202 204 201 216 219 227 234 253 275 295 310 307 292 299 309 320 326 330 328 324 324
34 5 195 139 102 75 96 91 33 1 8 260 276 205 251 259 242 230 223 212 203 194 191 197 202 207 217 224 235 238 246 268 288 300 297 291 289 296 302 308 314 321 323 319
133 272 231 170 163 157 148 138 157 198 230 281 312 240 257 263 274 239 214 195 189 194 198 206 210 209 217 229 235 234 242 262 279 287 293 294 294 290 292 297 301 303 302 301
161 238 315 167 145 129 128 147 156 130 159 287 288 289 303 256 262 185 177 179 202 207 207 212 213 212 219 228 231 228 234 254 270 278 289 296 301 299 303 307 304 301 303 309
148 170 326 105 83 47 131 140 104 115 146 272 298 288 260 258 244 232 218 217 223 217 214 215 213 214 220 225 232 229 230 243 259 273 280 290 295 299 305 314 317 316 317 321
125 130 347 72 174 175 119 105 105 110 145 157 268 278 231 228 225 221 228 226 221 215 213 212 213 214 217 222 223 227 236 244 260 269 278 298 304 309 317 320 318 319 321 329
135 117 200 270 273 202 175 166 149 153 201 172 186 268 265 243 239 224 232 232 223 214 211 208 207 206 211 219 222 225 232 240 250 258 271 287 301 317 326 324 324 326 328 332
137 111 59 349 343 353 166 155 149 128 122 156 178 261 290 277 243 229 230 232 223 213 207 199 198 206 215 219 221 226 231 237 248 250 265 288 302 311 313 316 324 331 333 336
118 118 165 202 227 223 222 178 156 140 160 201 219 247 283 271 249 239 229 225 215 211 204 199 206 215 218 219 219 224 233 234 234 233 251 271 282 289 295 307 321 328 332 336
113 173 218 237 241 219 233 224 188 192 197 200 231 232 251 246 234 234 226 214 204 209 207 205 208 212 214 217 222 222 230 231 222 224 245 261 275 285 293 308 316 323 331 333
112 169 189 291 292 234 252 250 220 218 214 221 244 258 251 251 229 229 221 204 207 213 212 210 208 205 208 211 215 216 223 224 205 218 242 261 277 285 289 297 310 321 326 330
145 144 141 269 307 357 276 242 215 212 207 192 219 242 245 221 221 220 217 206 210 213 210 206 205 204 206 207 205 209 215 204 198 221 244 256 262 272 281 293 307 311 314 324
147 134 143 208 16 254 247 252 211 220 239 214 225 240 225 222 229 227 207 202 213 212 206 205 202 202 204 200 198 198 187 184 200 223 243 248 248 261 277 291 293 295 302 307
148 138 128 137 224 279 293 275 191 200 267 228 221 239 231 194 90 287 220 202 209 206 199 198 193 188 184 188 184 170 175 183 199 226 240 242 235 248 266 277 280 281 293 302
77 104 123 138 186 249 256 265 187 143 283 257 206 218 181 133 164 251 222 195 204 196 184 177 166 158 168 180 162 161 178 187 215 228 235 236 225 229 246 259 270 270 268 283
103 95 147 171 215 260 255 265 134 159 250 269 205 200 174 186 207 225 175 176 177 173 167 154 149 159 174 163 154 165 179 209 225 224 226 229 226 230 239 255 259 268 283 301
184 174 187 157 188 254 256 151 177 224 267 270 227 205 198 214 217 185 177 172 162 155 151 149 150 158 155 153 156 167 197 220 207 192 202 222 233 240 234 240 272 277 292 314
200 194 189 190 215 238 237 221 245 258 265 259 239 229 204 207 210 196 186 179 172 165 159 154 152 149 148 159 162 174 205 188 159 153 181 219 244 257 261 235 270 302 314 311
259 177 176 247 269 266 264 257 260 247 250 261 249 234 199 205 206 195 186 180 175 170 165 156 150 153 163 170 173 184 176 154 148 156 179 181 168 324 349 324 253 238 288 289
242 180 217 258 278 301 297 273 277 281 273 271 260 230 213 204 204 194 189 186 181 173 166 160 162 166 171 167 171 174 159 148 149 158 165 156 155 149 48 35 29 178 265 194
214 203 214 246 249 246 275 289 294 283 277 267 256 251 231 207 206 195 192 187 177 172 165 163 165 166 166 160 165 168 163 156 152 153 156 154 148 136 116 84 40 34 57 45
Height
1493 1500 1507 1505 1504 1506 1509 1514 1515 1511 1507 1510 1513 1511 1506 1506 1507 1508 1509 1510 1512 1514 1516 1517 1518 1519 1519 1519 1519 1518 1517 1515 1513 1512 1510 1508 1506 1504 1502 1500 1498 1496 1495 1493
1498 1501 1497 1498 1502 1505 1509 1513 1514 1510 1507 1509 1512 1510 1505 1504 1504 1504 1505 1507 1509 1512 1514 1515 1516 1517 1518 1518 1518 1517 1516 1514 1513 1511 1509 1507 1505 1503 1501 1499 1497 1495 1493 1491
1497 1496 1494 1498 1503 1507 1509 1511 1511 1512 1510 1510 1512 1514 1507 1503 1502 1502 1503 1505 1507 1509 1511 1513 1515 1516 1517 1517 1517 1516 1515 1513 1512 1510 1508 1506 1504 1502 1500 1498 1496 1493 1491 1490
1494 1492 1494 1498 1502 1504 1510 1503 1505 1509 1516 1522 1518 1530 1512 1506 1503 1501 1502 1503 1505 1507 1510 1512 1513 1514 1515 1516 1516 1515 1513 1512 1511 1509 1507 1505 1503 1501 1499 1496 1494 1492 1490 1488
1494 1493 1495 1499 1499 1500 1504 1502 1506 1510 1516 1524 1522 1529 1519 1508 1505 1501 1500 1501 1503 1505 1508 1510 1512 1513 1514 1515 1514 1514 1512 1511 1510 1508 1506 1504 1502 1500 1498 1496 1494 1491 1489 1487
1492 1491 1492 1494 1495 1497 1501 1507 1513 1520 1525 1533 1523 1529 1524 1512 1503 1499 1498 1499 1501 1504 1506 1509 1511 1512 1513 1513 1513 1512 1511 1510 1509 1507 1505 1503 1501 1499 1497 1495 1493 1490 1488 1486
1496 1493 1492 1492 1497 1500 1503 1517 1532 1533 1541 1537 1523 1526 1520 1502 1498 1496 1496 1497 1499 1502 1505 1507 1509 1510 1511 1511 1511 1511 1510 1509 1508 1506 1504 1503 1501 1499 1496 1494 1492 1489 1487 1485
1503 1505 1493 1491 1495 1501 1505 1513 1531 1540 1543 1537 1525 1526 1510 1496 1494 1493 1494 1496 1498 1501 1503 1505 1507 1508 1509 1510 1510 1510 1509 1508 1507 1505 1504 1502 1500 1498 1496 1494 1491 1489 1486 1484
1503 1503 1491 1490 1491 1496 1507 1513 1515 1529 1533 1537 1531 1519 1503 1494 1493 1493 1494 1495 1496 1499 1501 1503 1505 1506 1507 1508 1508 1508 1508 1507 1506 1504 1503 1501 1499 1497 1495 1493 1491 1488 1486 1484
1494 1501 1494 1491 1492 1496 1500 1509 1522 1530 1539 1541 1532 1524 1515 1498 1494 1493 1493 1493 1494 1497 1499 1501 1503 1504 1506 1506 1507 1507 1506 1505 1504 1503 1502 1500 1499 1497 1495 1492 1490 1488 1486 1483
1491 1501 1500 1495 1497 1499 1505 1511 1519 1530 1532 1542 1541 1527 1498 1493 1490 1490 1490 1490 1492 1494 1496 1499 1501 1502 1504 1505 1505 1505 1505 1504 1503 1502 1501 1499 1498 1496 1494 1492 1490 1488 1485 1483
1493 1502 1507 1500 1493 1492 1495 1502 1513 1523 1528 1535 1538 1525 1489 1488 1486 1487 1487 1488 1490 1492 1494 1496 1498 1500 1501 1502 1503 1503 1503 1503 1502 1501 1500 1499 1497 1495 1494 1492 1490 1487 1485 1483
1492 1502 1513 1511 1506 1497 1496 1500 1505 1514 1525 1536 1536 1518 1487 1485 1484 1484 1485 1486 1487 1490 1492 1494 1496 1497 1499 1500 1501 1502 1501 1501 1501 1500 1499 1498 1496 1495 1493 1491 1489 1487 1485 1483
1488 1499 1508 1513 1507 1499 1497 1499 1504 1510 1522 1526 1522 1507 1490 1485 1483 1481 1482 1483 1485 1487 1489 1491 1493 1495 1496 1498 1499 1500 1500 1500 1499 1499 1498 1497 1496 1494 1493 1491 1489 1487 1485 1483
1488 1497 1497 1497 1494 1494 1494 1494 1499 1503 1504 1510 1503 1500 1487 1480 1478 1477 1478 1480 1482 1483 1485 1488 1490 1492 1494 1495 1497 1497 1498 1498 1498 1497 1497 1496 1495 1494 1492 1490 1489 1487 1485 1483
1489 1494 1495 1495 1491 1493 1494 1491 1492 1494 1494 1496 1494 1490 1475 1473 1474 1475 1475 1476 1478 1480 1482 1484 1487 1489 1491 1493 1494 1495 1496 1496 1496 1496 1496 1495 1494 1493 1491 1490 1489 1487 1485 1484
1492 1495 1501 1504 1497 1492 1497 1485 1484 1485 1483 1485 1487 1478 1469 1471 1470 1469 1470 1472 1473 1476 1478 1481 1483 1485 1488 1490 1492 1493 1494 1495 1495 1495 1494 1494 1493 1492 1491 1490 1488 1487 1485 1484
1491 1497 1504 1506 1500 1504 1489 1473 1473 1476 1473 1472 1470 1466 1465 1464 1464 1465 1467 1468 1470 1473 1475 1478 1480 1483 1485 1487 1489 1491 1492 1492 1493 1493 1493 1492 1492 1491 1490 1489 1488 1486 1485 1484
1484 1493 1505 1510 1507 1501 1483 1470 1470 1473 1471 1462 1463 1461 1461 1462 1464 1463 1463 1465 1468 1470 1472 1475 1477 1480 1482 1484 1486 1488 1489 1490 1491 1491 1491 1491 1490 1490 1489 1488 1487 1486 1485 1483
1487 1489 1501 1509 1503 1503 1482 1466 1464 1469 1471 1456 1456 1457 1459 1461 1468 1462 1460 1462 1465 1467 1470 1472 1475 1477 1479 1482 1484 1485 1487 1488 1488 1489 1489 1489 1489 1488 1488 1487 1486 1485 1484 1483
1490 1495 1500 1505 1504 1493 1469 1463 1465 1478 1472 1454 1452 1453 1455 1456 1456 1456 1457 1459 1462 1465 1467 1470 1472 1474 1477 1479 1481 1483 1484 1485 1486 1487 1487 1487 1487 1487 1486 1486 1485 1484 1483 1482
1488 1494 1498 1503 1502 1492 1461 1463 1466 1463 1454 1452 1451 1450 1451 1451 1452 1454 1455 1457 1460 1462 1464 1467 1469 1472 1474 1476 1478 1480 1481 1483 1484 1484 1485 1485 1485 1485 1485 1484 1483 1483 1482 1480
1481 1480 1481 1483 1477 1461 1459 1458 1456 1456 1453 1451 1450 1449 1449 1450 1450 1451 1453 1455 1457 1460 1462 1464 1467 1469 1471 1473 1475 1477 1479 1480 1481 1482 1482 1482 1482 1482 1482 1482 1481 1480 1480 1479
1473 1471 1473 1474 1463 1456 1455 1453 1452 1451 1450 1449 1448 1447 1447 1447 1448 1449 1451 1453 1455 1457 1459 1461 1464 1466 1468 1470 1472 1474 1476 1477 1478 1479 1479 1480 1480 1480 1479 1479 1479 1478 1477 1476
1468 1469 1470 1468 1459 1454 1449 1449 1449 1448 1446 1445 1445 1444 1444 1444 1445 1446 1447 1449 1451 1454 1456 1458 1461 1463 1465 1467 1469 1471 1473 1474 1475 1476 1477 1477 1477 1477 1477 1476 1476 1475 1475 1474
1463 1464 1466 1462 1454 1454 1449 1447 1446 1445 1443 1442 1441 1440 1440 1441 1441 1442 1444 1446 1448 1450 1453 1455 1457 1460 1462 1464 1466 1468 1470 1471 1472 1473 1474 1474 1474 1474 1474 1474 1473 1473 1472 1472